Theta_e
303 303 303 303 304 304 304 304 304 303 302 298 296 300 299 299 297 307 313 317 313 304 294 296 291 291 294 299 298 299 298 296 298 296 298 296 299 297 295 295 293 294 293 296 293 294 291 293 291 294 294 294 297 298 298 298 297 294 289 295 294 304 283 280 284 289 291 293 294 295 295 294 290 294 293 290 286 289 286 284 285 282 281 279 280 278 282
303 303 303 303 303 304 304 304 304 303 302 298 298 297 297 297 298 301 312 319 312 298 285 285 285 293 296 296 296 299 297 296 295 295 297 296 296 295 296 295 296 294 296 294 291 296 285 295 293 292 295 293 300 299 297 300 297 295 293 290 295 285 288 285 280 278 279 283 289 288 293 292 288 286 290 292 291 292 292 290 287 281 283 284 279 275 282
303 303 303 303 303 303 304 304 304 303 303 302 298 295 299 297 302 301 304 315 310 295 296 292 286 291 293 294 293 295 296 297 297 296 295 298 296 296 295 296 297 295 296 294 294 296 292 290 296 294 294 293 300 297 297 300 297 300 304 306 299 288 288 285 279 274 273 272 274 277 281 283 287 292 291 292 291 291 286 280 282 279 283 286 281 281 287
303 302 303 303 303 303 303 303 303 303 303 303 300 300 299 297 286 296 299 303 305 300 302 298 294 290 292 286 293 295 293 296 299 298 297 299 297 295 295 296 296 294 295 293 292 292 297 292 292 291 291 293 296 297 300 299 298 303 307 302 298 288 291 287 283 280 278 280 284 292 290 286 282 287 288 290 292 292 290 284 280 280 282 280 284 285 285
302 302 302 302 303 303 303 303 303 303 303 304 299 301 300 300 293 289 285 295 298 296 297 295 294 288 292 283 295 292 294 295 296 300 294 297 296 296 295 295 294 294 292 292 293 294 292 294 292 292 292 293 295 298 300 300 302 302 300 300 290 287 282 288 288 287 286 287 287 289 289 286 287 286 287 289 288 289 286 281 280 286 281 277 285 288 284
302 302 302 302 303 303 303 303 303 302 303 304 304 296 297 288 293 297 297 291 286 289 289 295 294 296 296 291 296 293 292 295 290 296 298 298 298 293 294 294 294 293 294 294 286 290 291 291 287 295 294 293 295 292 295 296 303 299 295 299 291 286 279 287 288 286 287 288 288 289 289 288 287 287 287 287 288 287 284 283 287 288 281 279 284 287 285
302 302 302 302 302 303 303 303 303 302 302 304 297 290 293 295 294 297 299 291 295 295 297 296 294 294 295 291 293 292 293 292 294 295 296 296 295 296 285 292 293 294 295 293 289 292 283 282 293 291 291 292 291 289 292 295 296 294 292 293 293 287 281 288 288 286 287 288 289 289 288 287 287 287 287 287 286 286 287 287 289 289 286 286 286 286 285
301 302 302 302 302 303 303 303 303 302 301 304 296 292 288 288 288 290 296 296 295 296 295 295 293 291 296 286 294 292 296 292 294 296 294 286 293 295 291 290 293 294 294 293 288 290 291 291 284 292 291 289 292 290 292 289 293 293 292 293 294 288 282 292 290 283 285 288 289 289 288 287 285 286 286 287 287 287 287 286 286 287 286 287 285 282 282
301 301 302 302 302 302 303 303 303 302 302 299 297 292 292 292 295 295 292 289 293 295 295 293 292 288 290 288 293 293 292 292 294 293 296 294 293 293 291 292 292 293 292 290 290 292 292 292 292 293 292 286 293 288 290 293 290 292 291 292 293 290 283 290 286 279 278 286 287 287 287 286 285 284 286 287 286 282 284 282 288 284 282 284 283 283 282
301 301 301 302 302 302 303 303 303 302 302 297 297 292 294 293 296 297 293 286 293 291 293 292 290 284 290 292 293 291 291 293 294 286 294 295 295 293 293 293 291 289 289 288 289 292 293 293 294 293 293 293 293 293 292 292 290 289 290 292 286 287 282 281 281 279 277 285 286 286 285 282 280 279 284 288 288 289 288 289 290 288 286 282 279 281 288
301 301 301 301 302 302 303 303 303 302 300 296 295 295 293 290 289 292 294 286 287 289 289 289 288 291 292 293 291 293 292 292 292 286 285 294 294 296 294 291 289 285 286 289 294 295 295 295 295 294 294 293 292 291 291 293 291 291 290 289 288 289 287 282 284 277 277 285 285 284 278 271 272 284 291 291 287 286 285 284 286 289 289 285 287 287 289
301 301 302 301 302 302 302 303 303 303 301 299 299 297 295 296 295 294 287 284 285 290 289 286 288 290 290 291 292 291 290 290 291 293 290 292 293 295 293 292 290 281 291 294 294 294 296 297 296 295 294 293 293 292 292 290 290 290 290 289 285 285 284 281 283 278 276 279 280 274 269 271 283 290 292 293 292 291 288 288 289 289 290 290 288 288 289
302 302 302 302 302 302 302 303 303 303 303 300 299 297 297 298 295 292 288 286 283 286 284 286 290 291 291 292 291 291 292 293 295 295 294 292 292 293 294 291 289 290 294 292 293 292 289 287 288 289 289 290 291 291 291 290 289 290 288 289 287 281 281 281 281 280 280 276 275 267 268 282 289 289 290 293 292 289 286 285 288 289 289 289 287 288 289
302 302 302 302 302 302 302 303 303 303 303 302 298 299 299 298 293 291 288 285 285 287 287 286 288 289 290 291 290 290 292 292 292 295 292 295 292 292 294 293 292 294 294 293 291 290 284 284 280 282 283 286 285 284 288 290 290 290 289 290 290 288 284 283 279 280 273 273 273 274 282 282 283 282 285 286 282 284 282 278 282 288 288 288 286 288 288
301 302 302 302 302 302 302 302 303 303 303 303 299 300 300 299 297 293 294 291 284 286 286 281 285 289 290 290 290 288 287 288 288 288 293 298 295 294 293 293 294 294 295 291 286 288 283 282 278 278 279 279 274 277 287 285 290 291 290 290 290 289 284 282 280 278 279 274 274 273 273 269 277 286 290 291 292 291 290 283 280 288 289 289 288 287 287
302 302 302 302 302 302 302 302 302 303 303 303 299 299 300 300 299 297 295 290 287 281 284 290 291 290 287 288 290 287 283 283 286 287 288 291 291 293 293 294 295 293 293 291 289 285 282 279 278 277 275 278 283 281 279 286 285 289 290 291 290 291 291 286 282 278 279 278 273 272 269 272 281 284 288 290 290 291 291 282 278 287 288 288 288 287 287
302 302 302 302 302 302 302 302 302 302 303 302 297 298 298 301 298 296 293 293 290 282 290 291 292 291 286 286 289 287 288 282 285 281 281 284 288 290 292 294 293 295 293 288 286 284 281 280 282 280 281 285 280 279 284 283 281 283 288 289 289 286 283 283 281 279 280 279 276 275 280 278 284 288 288 289 290 290 282 273 274 285 287 288 288 287 286
301 302 302 302 302 301 302 302 302 303 302 303 299 297 298 301 301 299 296 293 286 284 289 292 290 286 285 286 286 290 292 290 288 289 285 288 288 288 289 291 288 293 294 284 284 281 279 280 278 279 277 286 287 286 274 282 279 280 280 281 280 281 281 281 277 278 279 280 276 277 277 284 288 287 289 289 291 286 273 271 279 286 287 288 287 286 287
301 301 302 302 301 301 301 302 302 302 303 302 300 299 299 301 301 300 295 293 289 281 289 294 294 291 292 294 290 290 291 290 288 283 283 283 286 291 292 292 291 281 289 282 284 280 279 280 285 282 278 282 286 278 283 279 279 284 283 279 279 280 280 281 279 276 275 276 274 275 276 281 287 289 290 290 286 275 274 283 288 287 286 287 287 287 287
301 301 302 302 302 302 301 302 302 303 303 303 300 295 298 302 301 300 294 290 290 287 288 290 292 289 293 290 286 286 287 289 288 284 282 281 289 291 286 282 287 287 284 284 279 282 279 279 281 284 278 279 281 286 279 280 285 282 282 284 280 281 279 277 277 279 276 275 272 273 271 282 290 290 288 289 280 282 287 288 290 290 287 286 286 288 287
301 301 302 302 301 302 301 302 302 303 303 303 301 296 297 299 300 299 299 295 290 284 285 293 294 292 292 291 292 291 290 286 287 283 286 286 290 286 278 279 283 283 279 280 276 278 280 279 279 279 283 282 284 282 277 278 281 287 286 283 282 284 278 279 280 281 275 275 273 275 280 284 291 289 281 284 287 289 290 289 286 288 287 286 285 286 287
301 301 301 302 301 302 301 302 302 303 303 303 301 297 295 300 301 300 300 297 291 286 288 294 295 293 295 295 294 294 293 292 294 293 287 284 289 287 287 289 287 285 286 285 281 280 282 281 284 279 276 279 284 277 279 275 275 282 287 284 275 285 281 280 276 281 277 276 278 284 287 287 289 289 288 289 290 289 289 288 286 285 286 287 286 286 287
300 301 301 301 301 301 301 302 303 303 303 303 301 294 294 298 297 299 298 293 294 295 296 296 296 295 295 295 296 298 296 296 297 295 294 288 283 286 286 285 284 290 289 288 282 281 281 280 277 281 278 280 278 276 278 278 277 281 278 285 282 285 285 284 280 279 284 284 284 286 286 286 287 288 290 288 288 290 289 287 285 286 287 287 286 287 287
300 300 301 301 301 301 302 302 303 303 303 303 301 295 295 298 297 296 296 294 288 285 288 291 287 282 287 290 293 294 294 294 296 298 298 295 283 282 287 289 291 289 286 288 288 284 282 282 282 282 276 280 281 276 274 274 277 280 279 280 284 283 283 281 276 281 277 272 283 283 283 284 285 286 288 289 290 289 289 287 286 286 287 288 288 287 287
300 300 301 301 301 302 302 302 303 303 303 303 301 300 300 298 297 296 292 285 284 284 282 284 284 292 293 296 294 293 293 296 298 297 296 295 292 285 284 290 294 288 286 288 289 285 283 280 280 279 275 282 283 275 280 277 276 282 275 280 281 278 284 279 281 279 274 275 282 284 285 285 286 286 285 286 288 288 288 288 288 288 288 288 288 288 288
300 300 300 301 301 302 302 302 302 303 303 302 301 296 295 296 298 298 295 293 292 287 283 282 286 297 294 293 291 294 297 296 294 296 298 295 295 294 292 293 295 297 292 292 290 284 282 281 280 280 278 279 285 279 278 281 280 283 280 276 283 283 285 276 280 277 279 282 284 285 285 285 286 287 288 288 288 288 288 288 288 289 288 287 288 288 288
299 299 300 300 301 301 302 302 302 302 302 303 300 298 298 299 299 296 292 292 286 283 284 282 288 292 294 292 294 295 295 294 293 293 293 295 296 295 294 293 291 291 290 288 289 285 283 282 281 280 282 281 285 282 282 280 282 279 277 281 284 281 276 280 278 273 273 276 279 283 277 276 283 285 287 288 289 288 288 288 288 288 288 288 287 288 288
299 299 300 300 301 301 302 302 302 302 302 302 301 299 300 299 298 298 297 296 291 283 282 282 284 290 293 293 294 294 294 293 293 294 292 293 293 295 291 290 290 289 288 285 282 283 282 279 280 283 282 282 279 278 283 282 283 280 279 279 283 280 282 279 274 274 274 281 284 284 284 283 284 286 288 289 289 289 288 288 288 288 289 289 288 287 288
299 300 300 300 301 301 302 303 302 302 302 301 299 299 299 302 299 299 298 300 297 292 287 286 290 289 283 287 295 291 294 294 295 292 293 294 292 293 290 290 288 289 289 284 284 283 281 281 284 281 281 284 281 277 279 274 275 274 278 284 285 285 286 285 284 283 284 286 285 286 284 282 285 287 288 289 290 289 288 289 289 289 288 288 288 288 287
300 300 300 300 301 301 302 302 303 302 302 298 297 295 291 291 297 296 298 299 297 296 285 282 281 283 293 292 291 292 291 293 294 294 293 291 291 290 290 290 290 290 287 282 282 279 281 282 283 288 288 289 279 279 275 276 274 278 284 286 288 287 287 288 288 284 282 287 287 286 286 286 287 288 288 289 290 290 288 288 288 288 288 288 287 288 289
300 300 300 301 301 301 302 302 303 302 301 297 294 286 284 282 290 299 299 299 299 295 287 286 282 285 284 292 291 291 290 291 290 291 292 291 289 289 291 288 288 289 283 284 283 282 282 279 281 284 289 288 283 278 275 275 274 278 283 285 286 286 286 286 287 288 287 287 287 287 287 287 288 288 288 288 289 289 289 289 289 290 289 288 287 288 288
300 301 301 301 301 301 302 302 303 301 297 295 290 288 289 290 294 298 298 300 299 293 286 282 281 283 282 286 292 293 292 294 294 292 291 292 290 291 289 290 284 290 286 281 281 281 280 281 280 281 282 286 285 277 278 276 274 277 284 286 287 287 287 287 287 288 288 288 286 284 284 285 287 286 285 290 290 289 288 288 287 287 289 289 289 288 287
300 301 301 301 301 301 302 302 303 302 296 298 301 300 299 299 300 299 300 298 296 289 291 284 279 280 280 285 291 294 295 292 290 289 287 290 288 288 284 289 289 289 293 284 280 279 283 281 281 278 282 285 280 279 275 273 278 284 285 285 285 286 286 287 288 288 287 286 286 282 283 285 287 289 289 289 288 288 288 288 288 288 288 287 286 286 286
301 301 301 301 301 302 302 302 303 301 300 296 293 295 299 300 298 300 300 298 293 292 289 283 278 279 279 288 283 289 293 286 285 288 281 289 290 287 283 285 287 282 284 280 283 282 282 282 280 280 283 281 281 278 273 277 284 284 284 284 286 286 287 286 286 285 286 286 287 288 288 289 288 288 287 287 286 287 289 288 287 286 285 285 285 285 285
301 301 301 302 301 302 302 302 298 296 293 296 298 298 299 300 299 300 299 296 286 284 283 282 282 279 279 280 281 285 294 288 283 287 283 287 291 285 285 280 282 279 280 288 281 280 279 280 283 279 277 281 279 275 277 280 282 283 283 284 285 285 285 283 284 285 286 286 287 288 288 287 286 285 285 286 286 287 287 286 286 285 284 284 284 284 284
301 301 301 302 302 301 300 300 297 295 294 293 294 302 302 301 300 300 300 300 294 284 282 282 282 280 281 276 277 282 292 285 288 288 286 284 285 290 287 282 277 281 286 281 278 281 279 284 280 275 280 277 275 278 279 282 281 282 283 283 284 285 284 284 284 285 286 287 287 287 287 286 286 286 286 286 286 286 286 285 285 285 284 283 282 283 284
301 301 302 301 301 299 295 292 299 299 295 296 298 302 303 301 301 300 298 296 298 296 286 281 280 282 282 279 282 283 287 279 285 282 283 282 281 282 283 280 277 281 280 279 280 278 281 287 280 276 276 274 277 282 284 283 283 282 283 285 286 286 285 286 287 287 285 285 286 285 286 286 286 286 285 285 284 284 283 283 284 284 283 283 283 283 283
301 302 299 297 296 288 288 291 295 299 302 300 301 297 296 295 286 288 289 287 291 293 286 286 281 282 287 283 279 288 285 281 284 280 281 283 279 279 282 279 279 280 273 276 280 286 283 280 278 275 275 280 282 283 283 284 285 284 285 285 285 286 286 286 285 284 283 281 281 284 285 286 285 285 284 283 282 281 280 283 285 285 285 285 284 284 284
300 298 298 297 292 286 287 293 302 301 296 298 297 289 285 287 284 282 282 284 284 282 285 283 281 286 284 282 282 289 285 281 279 281 279 284 280 277 280 274 279 278 275 275 276 285 274 276 276 275 273 277 280 283 286 286 286 287 285 285 286 286 288 287 287 286 283 283 284 285 285 283 282 283 284 283 282 283 283 285 285 285 285 286 285 285 284
296 292 287 287 286 289 296 302 303 299 297 289 289 286 281 284 282 279 285 280 281 283 284 280 286 286 286 282 281 280 289 284 278 277 278 281 286 277 280 278 279 277 271 272 275 283 275 271 274 273 272 277 279 284 285 286 285 285 285 285 287 287 288 288 287 288 288 288 287 287 287 287 288 287 287 286 284 281 283 285 285 286 286 286 286 284 283
294 292 290 285 291 294 296 298 298 296 289 284 283 283 281 279 282 283 282 279 279 280 285 284 285 284 286 286 285 280 289 289 287 286 282 278 284 282 278 273 281 274 272 271 279 279 277 274 273 272 272 279 281 282 284 285 285 284 285 287 286 286 287 288 289 289 288 287 287 287 288 288 287 287 286 285 285 283 283 282 282 284 286 287 285 285 286
293 292 293 295 296 296 296 293 290 286 285 285 280 277 280 280 282 282 281 276 278 282 284 284 280 282 282 286 284 285 284 290 285 282 280 276 282 278 275 278 279 272 269 276 279 278 276 270 270 271 276 281 282 283 284 284 284 284 285 287 287 287 288 288 288 288 288 288 288 288 288 288 287 286 285 285 285 285 284 283 284 285 286 287 285 285 286
299 299 298 295 293 288 289 284 286 285 277 277 276 275 279 276 278 277 279 283 285 283 282 290 287 289 289 289 285 288 284 289 283 281 280 277 283 280 277 275 274 269 273 280 278 274 271 270 270 272 280 281 282 281 284 285 284 283 285 286 287 287 287 287 287 287 289 289 288 287 287 288 287 286 286 286 285 285 285 285 284 283 284 285 285 285 284
297 296 292 289 286 286 286 276 285 281 279 279 276 271 275 275 277 280 278 281 283 283 285 283 284 283 280 286 283 283 283 285 285 283 281 282 279 276 275 272 271 278 281 276 274 270 271 274 273 276 281 282 283 281 283 284 284 283 285 287 287 286 286 286 287 286 286 287 286 286 288 289 288 286 286 285 285 284 283 283 283 284 285 285 285 284 284
289 286 286 284 282 284 281 272 283 280 275 277 280 277 278 275 279 281 280 284 286 283 287 288 286 286 283 286 286 285 283 280 285 278 276 280 276 277 274 272 278 278 274 270 272 272 273 271 276 280 281 280 279 281 283 284 285 285 284 287 287 287 286 286 286 286 287 286 285 285 285 285 286 285 284 283 284 285 284 283 284 284 284 284 285 285 285
285 284 282 277 272 279 280 277 279 277 281 282 280 281 280 282 283 284 287 288 287 286 285 284 285 284 281 285 281 280 283 283 279 278 281 281 276 273 278 281 279 273 272 272 269 268 269 274 276 280 280 281 280 280 281 284 286 286 286 285 286 286 287 287 287 287 287 286 285 285 284 284 285 284 283 283 284 284 284 285 284 284 284 283 283 284 285
286 286 285 283 277 281 283 277 278 281 282 283 285 286 285 286 288 288 290 289 286 287 286 286 285 285 280 281 281 282 283 283 279 281 281 276 275 278 282 276 270 272 268 266 267 268 272 274 277 280 279 279 279 281 283 284 285 285 285 285 285 286 287 287 288 288 287 287 286 286 286 286 285 285 284 284 284 284 284 284 284 285 284 283 284 284 284
282 285 283 276 274 280 278 281 285 286 287 286 287 287 288 289 287 286 289 288 288 288 286 285 282 283 283 285 284 279 281 283 279 279 281 278 281 277 275 273 271 273 273 269 270 273 276 277 281 282 281 281 281 281 283 284 284 285 285 285 285 285 287 286 287 288 288 288 287 287 287 286 286 285 285 284 283 284 284 284 284 285 285 284 284 283 284
286 282 279 279 281 281 281 283 283 281 284 286 287 287 286 286 285 287 289 289 287 286 287 285 283 281 279 283 281 280 278 282 276 276 281 278 273 270 271 268 269 267 272 274 274 277 278 282 283 283 283 283 280 283 283 284 285 284 285 285 286 286 287 287 287 286 287 287 287 287 287 287 286 285 285 285 284 283 285 286 285 284 285 284 283 283 283
284 282 284 282 281 282 283 285 283 281 283 283 284 284 285 285 285 288 290 289 288 287 286 285 285 281 280 280 276 279 278 281 279 280 277 274 274 275 273 270 270 269 271 276 278 282 283 284 284 282 283 283 283 283 283 284 283 285 285 286 286 287 287 288 288 287 287 287 287 287 288 287 286 285 285 284 284 284 283 284 285 284 284 285 284 282 283
288 284 282 285 281 281 281 277 278 279 281 282 283 283 284 285 286 287 291 290 290 286 284 281 282 281 279 279 277 273 276 282 278 275 274 274 277 275 273 272 272 275 277 280 281 282 283 285 284 283 282 282 283 283 284 284 284 285 286 286 286 287 287 288 289 288 288 288 288 288 288 288 288 287 287 286 285 284 283 282 284 284 285 284 284 283 282
284 281 281 284 286 285 285 285 285 284 284 285 285 286 286 284 286 289 291 289 287 281 281 283 282 280 278 275 278 280 282 279 275 275 273 275 278 273 273 275 277 279 281 282 282 283 284 284 285 285 284 282 283 284 286 286 286 286 286 286 287 287 287 287 288 289 289 288 289 288 289 288 288 288 287 285 285 284 282 281 283 284 284 284 283 283 283
Wind_Speed
28 29 29 29 29 30 29 30 27 25 24 11 8 5 2 2 5 11 11 2 9 4 1 2 3 4 5 7 12 13 12 10 8 7 2 6 4 3 2 2 3 5 6 1 1 3 2 2 3 2 6 7 2 5 8 9 9 5 3 6 4 5 2 2 3 3 6 9 9 10 9 9 4 0 2 2 1 1 2 1 4 2 1 2 0 0 1
27 28 29 29 29 30 30 31 30 24 18 7 7 3 2 4 4 7 4 0 0 5 3 3 5 4 6 9 10 9 9 8 9 6 3 3 3 7 3 6 4 2 2 2 2 3 1 1 3 4 1 3 4 2 6 9 6 5 1 2 3 1 2 4 1 2 5 7 5 7 8 7 4 3 3 3 3 4 3 3 3 2 1 3 4 1 0
27 28 29 29 30 30 31 31 31 30 22 10 2 1 3 4 3 5 5 2 1 4 3 5 4 5 5 5 7 6 7 6 8 6 5 6 5 4 5 8 3 3 4 5 7 0 3 2 1 6 8 7 8 7 6 11 5 4 3 8 2 2 0 2 1 1 0 1 2 3 5 6 3 3 5 4 3 4 7 2 4 2 4 4 2 1 2
28 28 29 29 29 30 31 31 32 32 31 19 1 2 3 2 3 4 4 4 0 3 2 3 3 4 4 4 3 4 5 7 9 7 7 2 5 4 4 6 6 4 5 4 5 9 2 4 2 1 3 4 6 8 11 9 6 5 8 6 4 0 1 2 2 2 4 5 2 1 6 4 4 7 7 5 4 6 3 2 2 1 1 3 2 6 4
28 28 28 28 29 30 30 31 32 33 32 25 2 3 3 3 2 4 6 7 3 3 3 3 3 5 5 4 1 3 4 5 7 2 2 6 6 8 7 5 3 3 5 3 3 3 8 9 8 9 11 3 6 9 12 9 7 7 3 6 3 1 1 1 2 2 3 4 8 7 5 5 4 5 5 4 5 2 3 1 3 3 5 5 0 5 3
29 28 29 28 29 29 30 30 32 34 32 30 6 3 6 3 2 2 2 3 3 8 5 7 7 8 5 0 4 6 6 4 3 2 3 3 8 5 7 9 6 9 4 1 1 2 4 6 5 7 6 6 3 4 5 4 4 6 1 5 3 3 1 2 1 3 4 5 7 7 8 7 6 5 3 4 4 6 5 4 5 2 3 8 2 1 2
28 28 28 29 29 29 29 30 31 34 34 24 7 6 4 2 3 2 8 5 8 8 8 7 6 7 6 2 5 4 6 7 6 0 2 5 4 10 3 9 14 15 16 12 4 7 2 3 2 3 5 4 3 4 5 4 5 3 2 2 1 3 0 1 1 3 3 5 7 7 7 5 6 5 5 5 5 4 3 4 3 2 1 3 2 1 1
28 28 27 27 28 28 29 29 30 31 32 16 8 10 6 6 5 6 9 4 5 7 8 6 6 3 10 4 5 7 0 3 5 7 5 2 3 8 8 13 13 11 15 12 8 7 5 3 3 4 5 6 3 1 1 0 1 1 2 1 3 3 1 4 2 3 3 5 8 8 8 7 6 6 5 6 4 6 3 3 5 5 3 3 5 6 4
28 28 27 26 27 28 27 28 29 29 26 9 9 6 6 3 3 3 6 9 6 8 7 6 5 6 7 6 7 6 11 6 8 7 10 6 5 3 6 10 9 12 15 13 9 9 7 6 5 4 4 2 3 2 2 4 2 3 2 2 1 1 1 1 1 2 2 2 3 4 6 8 6 5 4 3 4 4 3 3 1 5 2 6 9 10 5
28 28 27 27 27 27 27 27 27 27 21 6 5 8 8 5 3 3 3 2 6 5 5 7 6 6 4 6 4 5 14 14 10 4 10 15 15 12 13 10 9 10 10 10 10 12 10 8 8 4 4 4 5 5 5 4 3 1 2 1 2 2 1 1 1 0 2 3 4 7 7 9 9 5 3 4 1 1 3 2 5 4 4 8 4 0 2
27 27 27 26 27 27 27 27 26 25 15 10 6 5 9 8 7 8 4 3 7 6 8 10 8 6 8 12 14 11 10 13 12 6 4 11 12 11 10 10 6 3 6 6 9 10 11 10 8 4 4 5 5 5 5 6 4 3 1 1 0 1 1 0 2 2 1 0 4 5 6 2 3 1 6 6 2 4 5 3 5 6 6 1 2 3 4
26 27 26 26 26 26 26 26 26 25 18 9 4 3 5 7 5 3 3 5 6 10 8 8 10 8 12 13 9 9 8 7 7 7 5 7 10 10 6 7 6 3 5 6 7 10 12 9 8 5 7 7 7 7 8 7 5 4 2 3 3 4 2 1 1 1 1 2 4 4 3 6 0 7 9 9 7 6 7 6 10 9 9 9 12 11 10
24 25 26 27 26 26 26 25 26 25 23 12 7 4 6 7 4 4 3 2 5 9 7 9 12 13 14 13 9 7 11 8 6 6 6 5 5 7 4 5 5 4 4 6 10 9 7 4 7 6 7 7 5 7 9 9 8 8 5 3 2 3 3 1 1 3 1 2 1 1 4 2 3 6 10 7 5 7 6 7 12 11 8 7 7 6 6
24 25 25 27 26 26 25 24 24 25 25 18 8 7 5 8 6 6 4 3 5 6 6 7 13 12 13 11 11 8 11 9 7 4 3 3 3 4 3 6 3 2 4 5 4 4 4 2 2 2 3 2 2 4 4 6 7 10 11 8 5 4 3 3 2 2 3 3 5 7 2 5 9 5 6 4 4 3 2 3 6 9 8 7 4 6 7
25 26 26 26 26 26 26 24 23 24 24 22 7 7 6 7 4 2 3 1 2 3 7 6 7 8 9 8 13 8 7 7 10 6 4 1 2 3 6 8 3 2 2 2 2 1 1 0 1 0 2 1 0 2 2 3 4 6 6 10 10 7 7 3 5 2 5 3 0 2 1 3 0 0 2 4 4 3 4 2 1 8 10 9 6 7 7
24 25 25 27 26 25 26 25 23 22 22 23 9 7 5 5 3 2 2 1 0 3 6 5 6 6 5 6 9 7 6 3 6 6 6 6 8 6 7 2 2 2 2 2 1 1 1 1 1 0 1 1 3 2 1 1 2 3 6 3 3 5 2 6 9 3 3 2 2 2 1 1 0 4 5 6 6 5 4 2 2 6 7 7 7 8 7
23 24 24 25 26 25 25 25 24 22 20 20 9 7 3 8 6 6 4 3 2 5 6 10 6 4 4 6 8 7 7 4 5 3 4 5 7 10 9 6 4 1 1 4 2 1 1 1 1 1 3 3 3 1 3 3 3 6 10 5 6 7 5 5 4 1 2 2 2 3 0 2 4 6 6 7 8 5 5 1 0 6 8 6 7 6 6
23 23 25 25 25 24 25 24 24 22 22 22 11 5 5 5 7 7 4 4 3 4 6 9 8 6 6 5 4 4 2 4 6 3 2 2 8 9 9 6 3 5 6 2 2 1 1 0 0 1 2 3 3 3 2 3 2 4 4 3 3 4 3 4 2 2 1 3 2 3 1 1 4 6 10 7 6 3 2 2 2 5 6 5 7 7 5
23 23 23 25 25 24 24 23 23 23 21 21 12 8 3 6 6 7 3 4 4 4 7 8 7 7 6 7 5 5 6 6 5 3 5 5 4 11 11 4 5 3 8 5 5 2 3 2 3 3 2 4 5 1 1 2 2 1 3 4 6 5 2 3 3 2 1 1 2 1 2 2 3 7 4 6 3 3 0 1 4 3 5 4 5 5 6
23 23 23 24 24 24 24 23 23 22 21 21 12 3 8 7 4 6 7 5 3 2 4 6 7 10 7 7 7 7 6 7 6 4 4 4 7 11 6 6 8 6 8 5 5 2 2 3 2 1 2 2 1 1 1 2 1 2 1 3 3 1 2 2 3 1 2 1 1 2 2 1 6 6 4 5 3 1 1 3 2 3 3 7 6 3 4
22 22 22 23 24 24 23 23 23 22 21 20 13 5 6 4 6 4 3 1 3 1 2 3 5 7 4 5 4 5 6 7 6 5 5 3 6 3 3 3 5 4 3 4 3 4 4 4 5 1 1 1 2 1 1 1 3 5 5 3 4 8 2 1 3 1 2 3 3 2 2 4 1 3 2 3 1 1 3 4 6 7 7 6 6 6 6
22 22 23 22 24 24 23 22 22 21 20 20 17 6 3 7 7 7 9 1 1 1 2 7 1 5 2 3 4 5 5 6 6 3 2 5 6 6 3 8 8 3 2 3 2 2 4 2 3 3 3 3 4 3 5 5 2 1 1 1 2 6 1 0 2 1 2 1 1 4 3 4 1 4 3 1 8 10 6 6 3 5 6 4 5 6 7
22 22 22 23 23 23 23 21 22 21 21 19 12 3 4 8 8 10 8 3 1 3 1 1 2 3 3 5 3 4 6 3 4 3 3 1 3 4 7 6 5 3 1 2 3 1 3 3 3 2 2 3 3 4 4 1 1 5 5 5 5 1 2 4 3 1 2 0 2 4 7 6 7 4 8 12 8 7 8 6 5 4 4 4 4 4 5
21 22 22 23 24 23 22 21 21 20 19 18 10 3 5 7 6 9 9 3 5 5 2 5 3 3 3 3 3 4 2 2 5 2 3 1 2 3 2 3 1 2 2 4 1 3 3 2 3 1 1 3 4 3 4 3 4 3 2 2 2 3 4 4 1 2 5 2 8 12 8 6 6 8 9 8 8 6 6 5 3 4 4 5 4 4 4
20 21 22 22 23 22 21 20 20 20 19 18 15 5 4 3 4 7 6 4 5 3 0 1 1 1 4 0 3 1 2 3 3 3 2 1 5 4 1 2 1 2 2 4 3 5 2 2 4 2 3 2 4 2 3 3 2 4 3 2 2 1 1 3 1 3 2 0 9 8 5 4 6 8 8 10 9 8 5 3 3 4 3 3 4 4 4
20 20 21 22 21 21 20 19 19 19 18 19 13 4 4 4 3 4 1 2 2 0 0 1 1 1 3 4 5 5 4 3 3 4 2 4 6 4 2 1 1 2 2 1 2 2 2 1 1 1 3 2 3 1 1 1 4 3 1 3 1 1 3 2 3 2 3 4 11 9 7 5 8 10 9 7 6 7 6 7 7 6 5 5 4 3 4
20 20 20 20 20 20 20 19 18 18 18 17 9 6 5 4 5 6 5 4 3 1 3 2 2 4 6 3 1 5 3 4 5 5 6 5 3 3 1 0 2 2 3 4 2 0 0 1 1 1 1 1 1 2 1 2 2 2 2 3 6 5 4 2 6 4 3 4 4 6 5 6 10 7 7 8 8 7 8 7 8 8 8 8 8 8 7
17 18 18 19 19 20 20 19 17 16 16 17 10 7 5 3 3 5 5 5 4 1 2 3 4 2 2 4 4 3 5 1 2 1 5 4 6 0 2 3 3 1 1 1 2 1 1 2 3 2 0 2 2 3 2 2 1 1 4 3 2 5 2 3 2 2 2 4 4 3 1 2 3 6 7 7 5 7 8 8 9 7 7 7 8 9 9
18 18 18 18 18 19 20 19 18 15 16 12 6 6 6 0 3 5 5 4 2 2 2 3 5 2 0 2 3 4 1 1 2 5 2 1 3 3 2 3 3 2 2 1 1 1 1 3 1 2 1 1 2 2 3 2 1 2 2 2 4 2 3 5 4 2 2 1 4 3 3 3 5 4 5 5 5 6 6 6 6 7 8 9 8 7 7
19 18 18 18 18 19 20 19 18 16 16 7 2 2 0 1 3 4 5 4 3 2 1 2 3 1 1 2 1 4 3 3 6 4 3 1 1 3 4 2 1 3 1 1 1 2 1 1 1 1 1 1 1 0 0 1 1 1 3 4 5 3 3 4 3 2 1 2 3 4 4 4 3 4 4 4 6 5 5 5 6 7 7 8 8 6 4
20 19 19 18 18 18 19 18 16 15 12 6 3 0 2 1 1 4 6 5 3 1 1 1 4 3 2 0 1 0 3 2 3 2 2 2 3 4 1 4 3 1 2 2 1 2 1 1 2 0 0 1 1 0 1 1 2 2 1 3 0 3 3 2 3 2 4 4 4 4 4 3 4 5 5 6 6 6 6 7 6 6 6 6 5 7 9
20 20 19 18 18 18 18 17 14 10 5 3 2 1 0 1 3 6 7 4 4 1 0 2 3 1 1 0 2 3 1 2 3 2 1 3 1 2 1 0 2 1 1 1 1 0 1 1 1 2 3 1 2 0 0 1 2 2 2 2 2 3 3 3 3 4 4 4 4 3 2 4 5 5 4 5 7 9 8 6 5 4 6 5 9 10 11
20 20 19 18 17 18 18 17 15 9 4 5 7 8 8 8 8 7 5 5 1 1 1 1 3 1 1 1 1 2 2 2 3 1 0 0 2 0 0 2 3 0 2 1 0 1 1 0 1 1 1 3 2 1 1 2 2 3 4 3 3 4 3 3 3 5 4 4 3 2 3 3 5 5 6 7 8 7 6 6 7 7 8 9 9 10 9
21 21 20 18 16 17 17 18 15 11 7 1 2 2 4 6 4 6 4 1 2 2 1 1 1 1 2 1 1 2 2 2 2 1 0 2 1 2 0 1 0 0 0 1 1 0 1 1 3 3 2 1 1 1 1 1 4 4 4 4 4 4 4 3 3 4 4 3 2 3 3 4 3 5 5 6 6 5 4 6 8 8 8 8 9 8 7
21 21 20 19 16 17 18 14 5 1 2 4 2 1 2 4 5 4 2 1 1 1 1 1 2 2 2 1 2 2 2 1 1 1 1 2 3 2 0 0 0 1 1 0 1 2 2 2 0 1 3 3 2 1 0 2 4 4 4 4 4 4 3 2 3 4 3 4 2 4 4 3 3 4 4 6 6 6 6 7 6 6 7 6 5 5 5
21 21 20 19 20 13 5 3 2 1 1 0 2 4 6 5 5 4 4 2 1 0 0 2 2 2 1 3 2 1 2 2 2 1 3 1 1 2 0 0 3 0 1 3 2 1 2 0 1 2 0 1 1 2 2 2 4 4 4 4 3 3 0 1 2 3 3 3 4 4 5 4 4 5 5 5 5 5 5 4 5 4 4 3 4 4 4
23 21 21 17 6 1 1 2 2 2 2 4 6 9 9 3 2 2 2 1 2 2 1 1 1 2 2 2 1 1 2 2 1 2 3 2 1 1 0 1 2 1 0 1 1 2 2 1 2 1 0 3 2 4 5 3 4 3 2 2 1 0 1 2 3 2 2 3 5 5 4 3 4 4 4 3 2 2 3 3 3 3 4 5 4 4 5
24 22 6 2 1 1 1 0 0 3 3 7 7 4 0 2 0 1 1 1 2 3 2 1 3 3 1 1 2 0 1 3 4 2 1 0 2 3 1 1 1 0 1 1 2 1 1 1 2 3 3 3 6 4 5 5 5 5 4 2 0 2 1 2 3 2 1 2 3 3 2 2 2 3 3 2 1 2 2 2 2 2 2 3 3 3 4
15 4 2 2 1 1 1 1 2 2 2 4 1 1 1 1 0 1 2 2 1 1 3 3 3 2 2 1 1 1 2 0 3 1 2 0 1 3 1 1 1 1 1 1 2 3 1 1 1 2 3 4 4 4 4 6 5 4 3 3 4 2 1 1 3 0 1 4 4 2 1 1 1 2 2 2 1 1 2 2 3 3 3 4 3 1 2
4 5 3 3 2 2 6 4 2 2 1 1 1 1 1 1 1 2 1 1 1 1 2 3 2 2 1 0 0 1 1 0 1 2 1 4 1 1 0 0 1 1 1 1 1 1 1 1 1 1 2 4 3 5 2 6 6 3 3 4 4 2 2 1 3 1 2 5 4 4 3 3 2 3 2 2 1 1 3 3 4 4 4 5 3 1 1
5 4 4 2 3 4 5 7 6 2 1 1 0 1 0 1 1 1 1 1 0 1 2 1 2 0 1 1 1 2 2 1 0 0 0 2 1 0 1 0 1 1 0 1 0 1 0 1 1 1 1 4 4 3 3 5 5 3 3 4 3 3 2 0 2 4 2 4 3 2 3 5 3 1 0 2 2 2 4 4 4 6 5 4 1 2 1
3 3 4 7 7 7 5 2 1 1 1 1 0 1 1 1 0 1 1 1 2 0 1 1 1 1 1 1 1 2 0 1 0 0 0 1 0 1 1 1 0 1 1 1 1 2 0 2 1 1 3 4 4 4 5 5 4 2 2 5 4 3 1 1 0 3 4 4 3 3 2 3 3 3 2 3 4 4 3 4 5 7 7 4 2 3 1
15 11 6 4 2 2 2 1 2 1 0 0 1 1 1 1 1 2 2 1 0 1 1 1 1 2 2 3 2 1 1 1 1 0 0 1 0 0 0 1 0 2 2 1 1 1 2 1 3 2 6 4 4 4 5 6 4 4 2 5 5 4 4 1 0 2 2 3 3 3 2 1 2 2 3 4 5 5 4 3 3 2 5 1 4 3 2
6 4 2 1 1 3 0 1 0 1 0 1 1 1 2 2 2 1 2 1 1 1 1 2 2 2 1 1 1 0 1 2 1 0 1 1 1 1 0 1 2 1 0 1 1 3 3 1 3 4 5 4 3 3 4 5 4 4 3 4 6 4 4 2 2 3 3 4 2 1 0 0 1 3 4 4 4 1 3 3 4 2 3 4 3 3 3
2 1 1 1 1 1 2 2 1 1 2 1 2 2 2 3 4 1 3 1 1 1 1 2 2 2 0 2 0 1 1 0 1 1 1 0 1 0 1 2 1 0 1 2 1 2 1 4 2 5 5 5 4 3 3 5 5 5 4 7 5 6 5 5 3 3 4 4 4 3 3 3 4 4 4 4 3 1 1 1 2 2 3 3 4 2 3
1 2 2 2 3 2 1 1 0 1 1 2 3 3 4 6 5 2 2 2 1 4 5 4 5 5 3 0 1 1 0 1 0 2 1 1 1 2 1 1 1 2 1 1 2 4 4 6 2 6 4 5 3 3 4 4 4 4 4 6 7 5 8 6 4 4 4 4 4 4 4 4 5 5 4 2 1 3 1 1 3 3 2 3 4 4 3
2 1 1 1 2 1 1 1 2 1 2 5 4 4 4 4 1 1 0 3 7 5 4 4 3 3 1 2 2 1 1 1 1 0 2 1 1 1 1 0 1 1 1 2 3 3 3 4 2 6 5 5 4 4 4 5 3 4 3 3 3 7 6 7 7 6 4 5 5 5 6 6 6 5 4 3 2 2 2 2 2 2 2 1 1 2 4
2 1 1 1 2 1 2 2 2 5 5 6 7 5 5 5 3 2 3 3 5 4 4 3 2 2 1 1 2 2 2 0 1 1 1 1 1 1 1 1 2 1 1 2 4 3 4 2 5 5 6 6 6 6 4 4 4 4 4 5 4 4 7 5 5 4 4 7 6 6 5 4 5 4 3 4 4 4 4 3 2 1 1 2 3 3 3
1 1 1 1 1 2 3 4 7 8 8 6 5 6 6 5 5 5 2 3 4 4 4 3 1 2 1 1 2 1 2 1 1 2 2 1 1 2 1 2 1 3 2 3 5 6 4 6 7 7 7 6 5 3 2 1 2 4 4 3 5 4 6 7 6 5 4 4 5 4 4 4 4 4 3 4 4 4 3 2 2 3 1 2 2 2 2
1 1 1 2 2 3 4 6 6 7 5 6 5 5 3 5 5 6 3 2 2 2 3 2 3 1 1 1 1 1 2 1 1 1 2 3 2 1 1 4 3 3 3 3 4 2 2 5 4 4 5 6 5 5 4 4 4 3 2 2 2 3 5 6 7 6 5 4 4 4 4 4 4 4 4 5 6 5 4 1 1 4 3 1 3 3 3
1 1 2 3 4 4 3 3 3 6 7 6 6 5 2 1 0 3 2 1 1 2 2 1 1 2 0 0 1 1 2 0 1 4 3 3 1 2 4 5 3 3 5 6 6 5 2 6 5 6 5 5 5 5 5 4 4 6 6 4 4 2 3 4 6 7 6 5 4 5 5 5 5 4 3 5 5 5 5 4 3 3 5 4 2 4 4
1 3 3 3 6 7 7 7 6 7 8 8 7 5 3 4 1 2 1 2 3 2 2 1 1 0 1 3 2 2 1 0 2 1 3 2 2 4 3 3 3 4 4 3 4 6 6 4 5 6 5 4 3 1 0 0 1 0 1 3 5 5 4 3 5 6 6 5 5 5 6 5 4 4 2 4 4 4 4 5 4 3 4 5 3 4 4
Wind_Direction
357 356 354 351 349 347 345 344 345 351 348 3 347 319 309 275 264 307 318 124 119 107 185 230 206 215 239 252 251 256 270 275 270 266 289 258 280 262 180 278 286 248 231 272 327 303 262 198 200 229 69 88 87 19 360 11 46 58 24 58 332 20 79 23 302 301 311 320 320 312 315 314 326 333 70 42 19 125 143 205 214 183 280 36 355 136 258
357 357 355 352 350 348 346 344 343 349 5 338 306 303 291 301 287 300 283 360 37 111 197 244 254 251 243 238 260 265 277 272 266 258 290 278 299 290 294 252 253 327 358 336 276 97 16 217 245 42 15 107 58 29 26 54 35 40 307 106 258 71 294 128 264 355 340 334 322 340 353 35 35 338 360 64 48 46 109 64 30 52 229 144 108 248 283
358 357 356 354 352 350 348 346 343 342 351 353 290 286 298 281 248 228 266 234 124 187 176 211 256 268 266 258 248 265 252 266 287 290 289 334 324 347 334 325 59 309 18 336 335 201 146 348 198 189 184 139 181 138 153 97 92 53 50 49 106 105 225 78 117 179 189 285 70 351 335 350 328 350 355 13 14 65 34 29 16 55 315 44 105 106 248
358 358 357 355 353 352 350 348 345 343 340 353 282 249 298 325 343 306 352 357 337 269 310 276 243 270 277 317 285 303 304 308 312 321 286 268 340 324 330 311 2 352 19 358 356 326 164 174 341 11 71 175 149 143 90 84 100 107 57 52 65 98 22 114 153 161 200 218 247 301 1 340 355 320 326 314 8 12 42 114 104 213 222 359 228 155 220
359 359 358 356 355 354 352 350 349 345 341 342 106 291 194 293 16 12 340 320 334 357 291 357 320 279 243 253 321 264 261 281 280 10 344 30 360 341 312 336 7 359 28 349 323 333 344 359 29 12 4 19 84 90 106 92 95 92 90 100 76 67 29 310 12 299 251 304 311 320 324 296 296 325 298 339 338 12 24 105 249 152 58 329 277 109 114
0 359 359 358 356 356 354 354 352 348 343 339 339 40 12 4 353 37 29 265 298 348 348 2 319 318 349 333 12 348 340 356 350 324 6 331 25 9 349 345 6 329 294 254 270 301 287 36 16 4 34 354 18 93 83 97 93 78 61 114 114 138 141 266 222 283 292 289 287 289 296 289 285 277 298 313 334 359 341 275 240 231 219 224 208 105 333
2 1 360 359 358 356 356 356 355 352 344 339 55 28 6 4 317 321 4 4 327 299 289 309 302 325 331 11 360 339 21 347 337 150 272 348 20 27 0 350 12 11 22 27 20 13 51 343 1 50 344 25 342 35 59 88 128 84 17 13 119 85 219 237 273 305 342 338 341 334 319 316 319 318 325 321 327 314 336 307 333 52 230 222 205 94 81
3 2 1 360 358 358 358 358 358 356 345 335 52 50 4 13 352 332 335 320 290 314 334 324 302 33 2 32 353 330 12 339 338 333 18 47 11 20 31 3 9 27 47 45 47 15 27 41 61 348 34 347 28 28 104 171 27 106 166 130 353 93 282 122 61 51 342 343 323 313 304 310 305 307 333 340 359 13 5 67 11 10 355 2 65 63 46
5 3 2 360 359 359 359 360 0 359 350 22 11 43 24 311 322 321 306 324 321 327 319 327 39 45 2 19 343 16 355 353 347 57 10 42 17 99 69 24 359 44 41 36 22 3 354 347 4 346 21 4 324 44 294 28 23 356 2 41 2 80 243 51 82 57 313 279 275 315 3 5 356 342 350 27 34 29 9 43 298 84 34 31 45 45 16
5 4 2 1 0 359 360 1 2 3 356 28 342 21 350 337 306 321 301 292 296 297 357 26 46 21 318 342 326 36 19 34 23 33 16 29 28 28 39 34 49 41 34 19 350 338 332 335 321 316 325 318 318 313 330 354 8 45 5 75 108 158 123 72 85 246 244 269 1 353 10 11 2 337 348 354 317 73 65 46 47 68 103 59 67 83 309
6 5 3 2 0 359 359 360 1 6 8 18 354 349 10 4 330 327 342 348 322 360 40 28 23 29 357 18 7 20 34 33 41 41 8 15 17 11 58 43 51 72 39 335 326 326 315 302 299 323 317 306 306 314 317 317 301 280 245 51 360 34 114 215 144 165 236 57 41 29 30 341 242 297 18 13 318 111 86 61 43 42 63 126 140 116 18
6 5 3 2 360 359 359 359 360 4 9 356 319 304 20 332 316 310 339 20 358 11 36 41 15 8 6 6 9 3 20 24 31 42 31 22 5 348 42 53 64 33 350 311 340 325 306 288 275 259 236 244 258 268 274 279 289 290 252 192 184 200 122 213 140 114 237 46 41 31 268 235 207 35 18 11 23 61 114 86 54 36 34 46 42 29 32
4 4 3 2 359 358 358 359 359 359 3 356 354 330 3 356 347 347 332 2 24 18 14 22 11 7 358 350 355 11 359 6 47 46 58 43 3 351 8 60 44 9 347 351 334 328 337 326 321 314 319 314 297 267 245 237 245 254 258 233 155 154 148 204 221 150 76 65 111 147 225 271 76 62 30 354 41 12 51 42 35 36 42 67 65 56 45
4 3 1 1 360 357 356 358 359 359 358 0 349 331 346 9 15 354 14 18 355 27 6 19 9 360 349 354 351 10 19 14 358 358 30 44 347 333 339 81 84 335 355 348 322 317 343 6 347 7 315 319 277 280 250 257 237 223 221 231 216 185 179 131 241 109 165 171 158 211 333 338 6 1 8 12 38 355 46 108 33 7 17 25 51 42 37
3 2 1 0 359 357 354 356 359 360 359 356 341 333 346 13 20 351 305 328 345 329 33 34 348 342 342 9 2 18 13 2 356 342 351 135 283 16 357 73 44 12 336 356 343 351 235 305 345 46 278 155 165 248 232 231 220 227 224 211 202 192 195 199 133 249 133 136 99 347 23 264 257 197 16 3 3 19 351 92 83 7 359 5 29 44 32
1 0 360 360 359 358 354 352 357 0 3 355 350 344 320 8 345 312 294 233 251 30 1 16 357 351 6 1 353 15 355 12 1 338 356 5 19 327 64 24 147 67 349 285 242 272 317 80 276 24 238 262 275 351 284 336 305 45 7 40 88 42 119 142 146 180 96 110 134 189 195 231 202 322 359 343 333 2 319 71 53 334 338 1 22 28 26
360 359 359 358 358 357 354 351 352 359 1 4 345 332 314 8 7 347 328 322 44 82 359 12 354 11 7 1 358 10 355 8 9 26 350 352 358 357 355 351 359 355 11 359 313 8 5 165 237 258 301 300 303 311 324 354 4 354 351 6 43 61 32 29 45 82 133 134 137 228 83 87 350 345 345 330 321 7 64 298 283 337 321 348 14 15 20
359 358 358 358 357 356 355 350 350 356 360 359 357 325 305 348 5 350 347 7 12 55 13 17 11 24 11 8 15 330 8 8 6 337 295 11 22 356 344 331 359 357 349 329 318 311 294 163 255 230 257 311 340 60 13 1 17 352 349 13 14 8 353 54 61 40 356 161 222 97 73 5 1 323 313 337 327 37 81 211 313 295 306 345 13 354 352
357 357 357 357 357 356 355 351 349 354 358 1 351 341 313 326 352 17 352 10 22 48 351 25 17 42 16 19 16 349 25 34 16 19 345 345 7 334 322 10 17 351 6 358 348 2 14 324 15 20 355 353 33 106 320 20 5 317 341 26 16 5 50 327 52 22 39 47 87 163 109 256 260 293 326 347 355 47 268 239 215 254 304 351 343 338 326
357 355 355 355 355 356 354 349 348 352 355 358 1 303 282 293 4 36 21 2 324 18 14 19 25 38 27 30 8 12 6 31 13 28 13 337 319 334 359 8 353 15 3 17 21 340 66 6 14 337 13 2 321 250 12 278 307 334 110 46 92 338 66 311 3 291 60 71 85 24 358 242 182 275 346 31 74 215 197 239 268 285 337 350 319 329 350
356 354 354 354 355 355 353 349 346 349 353 356 357 325 328 341 357 8 39 65 304 14 334 333 64 51 38 53 22 21 43 34 18 11 350 309 308 328 58 17 357 3 19 355 0 336 355 351 347 4 305 347 284 82 292 9 357 19 56 51 73 3 66 347 52 30 73 22 44 84 184 253 259 63 76 304 159 291 354 3 6 18 28 14 1 6 4
355 355 354 353 354 354 353 348 345 348 352 355 357 341 325 324 332 354 328 270 183 200 198 262 329 142 146 93 112 75 65 42 57 51 34 342 326 26 52 30 24 6 17 8 18 353 8 317 334 23 354 311 356 41 347 35 1 360 360 99 52 346 103 203 119 325 93 115 169 221 194 219 134 133 187 122 40 40 44 52 48 33 7 360 10 344 347
354 354 354 353 353 353 352 349 347 348 349 356 3 3 311 315 335 341 336 330 294 314 290 27 349 34 5 356 4 112 117 134 119 90 77 43 339 19 47 29 5 334 24 56 61 300 270 352 296 333 336 12 2 330 340 32 351 22 15 30 120 36 25 359 75 348 76 154 130 47 29 17 12 23 50 52 34 25 33 29 10 8 349 357 348 328 346
351 351 352 353 352 352 351 349 349 350 351 351 354 319 319 306 321 350 346 338 58 347 344 11 53 351 348 347 17 48 9 103 106 154 176 141 70 357 17 56 336 359 11 340 27 344 301 300 257 352 45 342 25 28 36 347 52 334 11 29 63 19 19 59 96 297 62 289 26 36 12 1 20 37 33 40 45 30 10 3 15 342 337 336 327 347 342
346 348 349 349 350 350 350 349 349 351 351 353 348 314 298 292 11 8 8 2 337 41 91 331 3 298 284 69 335 102 66 16 103 108 11 332 101 102 80 265 324 110 305 299 348 25 3 353 342 12 31 346 43 326 342 52 329 13 27 301 60 339 49 40 45 56 101 203 46 10 348 353 29 38 25 8 358 358 355 341 348 316 313 315 327 350 341
341 343 344 344 346 347 348 348 347 349 350 350 349 329 324 313 14 10 347 352 279 199 41 349 240 120 340 36 10 12 305 85 21 18 329 83 100 121 157 320 333 175 208 312 49 60 334 338 2 1 57 339 47 37 346 191 238 269 288 271 340 29 45 22 351 34 306 22 26 8 12 29 19 7 4 355 345 336 342 345 344 350 354 346 336 348 310
336 337 338 339 339 342 344 345 345 346 345 346 337 322 318 324 21 27 29 344 358 16 11 345 5 28 359 33 67 287 30 51 62 353 18 14 134 162 98 121 336 359 43 4 330 24 321 261 47 330 98 225 79 258 247 312 338 356 325 334 350 48 30 345 35 30 17 62 329 32 23 321 335 350 345 336 336 351 348 353 352 350 352 346 345 340 339
333 332 333 333 334 337 339 341 343 341 341 338 328 313 304 345 42 26 18 16 48 110 283 286 326 310 328 315 332 317 96 335 137 85 58 328 333 101 141 214 218 191 202 87 356 355 299 317 266 207 118 335 35 330 342 308 343 352 40 343 24 91 47 78 108 123 260 299 354 53 96 270 262 314 323 326 2 10 357 355 345 346 354 354 356 348 339
337 333 331 329 329 331 335 337 340 340 335 330 301 297 289 109 57 52 15 345 355 295 275 267 262 270 39 271 277 303 308 120 149 131 130 346 320 343 310 283 253 206 131 105 166 213 235 252 192 125 154 211 112 292 18 328 360 85 292 39 72 118 113 107 149 175 229 352 345 3 17 329 308 316 332 339 13 10 3 359 355 352 3 4 351 337 336
334 333 330 328 327 329 330 333 337 339 335 316 312 294 211 337 334 44 9 350 342 331 355 1 353 267 207 260 310 319 350 351 27 65 53 329 340 304 274 295 155 103 124 183 160 273 268 313 306 95 189 135 110 141 41 279 42 109 322 42 51 58 61 124 155 97 330 1 3 359 348 321 311 345 344 6 12 12 15 1 351 2 3 352 333 323 345
328 329 328 327 327 326 325 329 337 341 338 324 292 309 26 40 289 31 3 329 321 22 292 232 239 303 319 201 197 305 295 341 10 1 87 275 254 260 320 51 331 85 50 357 33 281 349 316 344 141 111 43 97 125 222 342 314 102 305 108 58 67 63 51 58 56 71 27 12 352 336 337 358 7 1 4 355 18 21 8 358 7 347 331 331 11 13
324 324 326 328 326 323 321 322 332 341 326 345 38 74 207 244 272 322 314 290 304 310 296 319 303 187 207 187 260 190 242 34 287 235 220 171 315 20 3 78 263 353 134 159 184 61 253 238 8 304 104 200 101 120 359 278 294 138 165 94 40 85 71 55 27 54 62 31 14 15 354 357 12 358 335 355 25 32 21 359 352 346 338 2 22 20 14
320 321 324 327 325 320 317 316 321 326 284 282 269 267 267 273 297 302 295 318 340 236 219 227 245 241 253 249 180 17 17 321 276 141 69 274 185 225 243 195 252 132 29 75 20 218 239 277 199 316 194 131 109 193 144 223 203 91 58 76 65 63 42 41 66 73 51 11 52 64 354 1 352 7 21 27 37 23 6 5 11 11 21 20 18 12 8
317 318 321 322 319 315 310 309 310 301 276 230 309 198 206 209 285 288 306 270 255 257 234 241 283 339 278 38 60 282 302 333 282 327 113 277 217 132 236 339 223 167 241 133 229 40 310 299 232 182 83 296 157 80 266 302 62 46 44 45 69 41 39 28 64 54 43 2 4 85 56 22 22 29 28 36 23 7 358 30 22 20 27 22 18 13 1
313 314 315 313 313 306 302 299 317 318 278 256 192 138 139 181 224 265 279 299 17 330 338 268 264 293 332 317 104 270 256 284 306 9 277 238 172 120 77 42 326 94 266 75 332 179 221 228 201 57 265 139 110 200 219 65 64 49 39 45 44 33 24 19 19 31 13 342 20 63 63 41 29 46 44 35 24 11 13 29 31 26 28 19 4 351 349
313 311 309 308 303 296 294 262 187 264 252 262 279 181 183 239 249 231 215 248 191 202 269 272 340 326 358 329 1 279 359 305 318 317 225 197 324 48 176 159 310 312 152 132 218 280 238 188 81 250 138 244 249 118 136 106 76 59 64 60 52 54 356 100 82 29 344 324 63 67 52 41 59 55 56 35 27 15 9 18 20 20 14 351 346 337 340
309 307 307 303 288 169 235 235 195 146 250 233 273 307 290 275 218 201 209 229 215 190 212 286 322 280 32 301 262 275 41 2 297 302 352 25 277 245 235 32 227 225 18 290 241 243 245 178 143 202 287 207 200 187 131 124 121 118 108 108 119 182 52 66 82 51 334 348 58 53 36 37 61 71 69 54 32 6 352 7 4 360 347 334 327 344 336
305 304 298 269 228 247 218 359 243 255 287 292 296 308 78 98 310 241 165 214 197 152 242 199 241 251 270 279 304 216 86 289 20 348 323 66 353 289 159 163 224 91 261 251 248 238 151 132 178 186 252 156 175 142 131 126 127 126 116 127 106 46 67 90 88 68 14 4 24 40 28 35 72 80 98 76 20 353 330 319 318 308 291 290 298 321 324
302 282 228 207 183 328 11 301 238 269 263 254 191 353 270 158 164 251 203 185 97 245 220 179 236 212 177 236 289 106 97 111 324 292 307 219 101 295 39 27 330 80 291 10 304 63 337 281 253 219 258 172 154 157 159 130 121 125 144 144 119 86 50 75 110 122 137 129 126 138 142 78 2 105 124 157 181 242 279 290 289 292 293 290 303 293 309
346 340 339 325 31 338 283 281 193 255 274 320 227 117 266 209 177 263 175 204 215 204 116 224 212 209 161 154 330 281 13 80 315 299 2 310 105 148 269 298 285 80 268 270 248 95 142 268 288 352 294 159 161 172 135 114 112 123 113 120 99 100 87 94 99 45 120 138 152 162 189 145 75 64 22 348 257 220 274 267 272 270 283 293 288 175 4
359 332 323 345 325 315 307 322 311 261 214 267 288 263 57 292 241 246 305 264 195 252 170 184 164 314 51 50 157 243 280 329 261 225 113 256 221 64 31 257 45 308 243 252 239 139 195 296 267 205 246 139 141 154 110 106 113 112 95 107 115 114 116 192 165 170 131 123 153 167 134 112 130 141 159 269 258 217 225 248 265 266 261 279 257 154 195
322 261 272 285 282 276 293 281 198 260 244 215 118 255 213 229 261 287 164 216 240 192 24 29 353 55 134 178 199 72 286 144 187 161 127 295 262 131 231 257 268 205 275 242 331 271 132 245 237 261 191 149 145 156 117 107 104 94 133 134 119 118 83 59 136 130 150 180 172 144 139 147 157 174 195 255 261 256 235 232 258 265 263 236 162 122 110
293 277 239 251 283 267 196 255 211 163 139 349 61 326 237 263 204 217 254 209 170 141 197 201 166 130 88 34 348 131 182 152 123 348 71 260 333 129 176 246 81 261 240 296 262 292 260 254 268 219 185 163 172 141 130 135 146 153 175 143 138 136 132 141 152 141 155 126 106 122 142 178 156 178 214 249 267 283 269 227 231 285 341 73 132 128 103
273 261 260 193 272 266 188 286 263 62 293 171 157 226 230 250 271 219 254 264 88 263 144 149 180 110 243 117 146 303 33 7 24 41 287 259 240 253 181 244 204 248 9 263 237 245 241 226 222 177 183 161 199 155 150 139 151 166 204 151 129 124 110 142 165 192 143 113 156 167 112 225 227 231 235 239 241 320 7 14 346 356 5 14 76 114 121
321 303 221 232 221 277 54 315 294 129 224 215 196 237 228 245 265 238 192 229 150 236 110 109 82 87 85 152 199 208 106 171 55 87 258 57 315 305 223 246 250 359 252 275 281 290 296 273 326 116 174 170 201 177 151 158 167 186 178 137 147 150 150 151 196 216 172 174 177 188 194 243 236 231 247 240 222 154 48 12 342 350 6 27 22 67 126
318 319 317 343 327 298 182 266 295 283 241 213 235 221 241 255 267 316 187 200 76 29 34 26 29 37 341 350 127 208 91 140 148 226 219 180 210 254 231 282 339 291 279 254 248 238 227 245 252 173 187 165 194 176 183 200 210 173 147 155 171 167 161 171 178 219 182 165 166 191 208 230 250 240 234 234 160 131 102 57 44 15 24 50 34 9 6
281 284 273 297 275 259 168 245 254 247 307 298 290 290 277 264 133 347 40 89 69 67 50 55 56 91 48 319 356 321 171 139 217 265 54 305 215 286 131 191 253 216 248 253 245 257 270 269 207 174 172 175 210 205 205 221 183 141 135 110 140 170 175 169 177 205 193 166 186 205 210 220 235 246 206 174 138 138 143 108 63 27 66 81 71 39 9
302 312 311 277 264 253 239 248 281 284 279 282 291 301 320 332 0 5 60 104 120 93 73 59 12 16 321 323 109 234 284 176 161 265 164 258 297 254 270 247 232 201 197 233 247 252 259 204 166 177 189 198 196 205 224 208 165 150 155 167 204 177 168 177 180 209 180 174 204 224 217 220 232 255 211 167 157 145 139 147 147 53 30 78 66 42 38
277 296 293 296 285 310 307 337 328 301 294 288 311 327 324 349 343 341 40 78 78 86 97 98 93 80 251 245 259 259 263 164 245 238 157 175 167 222 183 240 212 259 247 206 240 243 234 188 186 183 184 188 200 218 248 231 181 165 180 184 189 191 165 180 188 195 198 202 205 220 218 238 229 242 228 171 137 136 124 121 150 152 107 95 92 72 51
293 254 218 233 289 277 264 280 276 280 302 323 335 314 357 26 6 337 350 54 69 86 58 71 88 102 256 45 283 266 261 202 240 280 236 218 198 214 225 254 222 218 253 259 255 292 119 166 175 190 192 195 199 198 203 230 177 158 184 218 239 196 184 171 177 178 190 204 215 227 236 250 248 239 224 180 154 155 133 133 154 146 132 108 128 114 86
232 239 248 222 239 272 339 299 302 304 304 301 307 307 349 351 303 301 357 53 46 81 107 185 221 163 123 255 237 242 238 140 228 228 219 239 218 228 222 242 227 210 238 244 258 274 175 181 193 198 199 203 199 199 197 193 180 188 194 198 213 215 205 183 174 175 186 192 216 235 240 238 240 259 249 155 144 154 149 165 202 179 148 143 126 114 106
239 240 242 229 230 246 251 262 268 264 274 282 287 288 328 291 247 255 177 123 109 125 228 170 144 205 177 220 229 258 308 23 244 247 264 244 202 241 242 230 249 239 232 258 287 294 291 257 187 180 188 174 168 174 92 158 148 296 277 211 193 193 206 198 174 173 174 184 202 223 240 241 243 264 228 172 162 164 162 172 193 168 147 134 140 139 138